Time,TemperatureF,DewpointF,PressureIn,WindDirection,WindDirectionDegrees,WindSpeedMPH,WindSpeedGustMPH,Humidity,HourlyPrecipIn,Conditions,Clouds,dailyrainin,SolarRadiationWatts/m^2,SoftwareType,DateUTC
2013-01-30 00:03:00,39.1,36.4,30.30,NW,304,0.0,0.0,90,0.00,,,0.00,0.0,WUHU216DAVISVP2,2013-01-30 08:03:00,
2013-01-30 00:08:00,39.0,36.3,30.30,NW,304,0.0,0.0,90,0.00,,,0.00,0.0,WUHU216DAVISVP2,2013-01-30 08:08:00,
2013-01-30 00:13:00,39.0,36.3,30.30,NW,304,0.0,0.0,90,0.00,,,0.00,0.0,WUHU216DAVISVP2,2013-01-30 08:13:00,
2013-01-30 00:18:00,38.8,36.1,30.30,NW,304,0.0,0.0,90,0.00,,,0.00,0.0,WUHU216DAVISVP2,2013-01-30 08:18:00,
2013-01-30 00:23:00,38.5,35.8,30.30,NW,304,0.0,0.0,90,0.00,,,0.00,0.0,WUHU216DAVISVP2,2013-01-30 08:23:00,
2013-01-30 00:28:00,38.7,36.3,30.30,NW,304,0.0,0.0,91,0.00,,,0.00,0.0,WUHU216DAVISVP2,2013-01-30 08:28:00,
2013-01-30 00:33:00,38.8,36.1,30.30,NW,304,0.0,0.0,90,0.00,,,0.00,0.0,WUHU216DAVISVP2,2013-01-30 08:33:00,
2013-01-30 00:38:00,38.7,36.0,30.30,NW,304,0.0,0.0,90,0.00,,,0.00,0.0,WUHU216DAVISVP2,2013-01-30 08:38:00,
2013-01-30 00:43:00,38.8,36.4,30.30,NW,304,0.0,0.0,91,0.00,,,0.00,0.0,WUHU216DAVISVP2,2013-01-30 08:43:00,
2013-01-30 00:48:00,39.0,36.5,30.30,NW,304,0.0,0.0,91,0.00,,,0.00,0.0,WUHU216DAVISVP2,2013-01-30 08:48:00,
2013-01-30 00:53:00,39.0,36.3,30.30,NW,304,0.0,0.0,90,0.00,,,0.00,0.0,WUHU216DAVISVP2,2013-01-30 08:53:00,
2013-01-30 00:58:00,38.8,36.1,30.30,NW,304,0.0,0.0,90,0.00,,,0.00,0.0,WUHU216DAVISVP2,2013-01-30 08:58:00,
2013-01-30 01:03:00,39.3,36.8,30.30,NW,304,0.0,0.0,91,0.00,,,0.00,0.0,WUHU216DAVISVP2,2013-01-30 09:03:00,
2013-01-30 01:08:00,39.6,37.1,30.30,NW,304,0.0,0.0,91,0.00,,,0.00,0.0,WUHU216DAVISVP2,2013-01-30 09:08:00,
2013-01-30 01:13:00,39.8,37.3,30.30,NW,304,0.0,1.0,91,0.00,,,0.00,0.0,WUHU216DAVISVP2,2013-01-30 09:13:00,
2013-01-30 01:18:00,40.1,37.6,30.30,NW,304,0.0,1.0,91,0.00,,,0.00,0.0,WUHU216DAVISVP2,2013-01-30 09:18:00,
2013-01-30 01:23:00,40.4,37.9,30.30,NW,304,0.0,2.0,91,0.00,,,0.00,0.0,WUHU216DAVISVP2,2013-01-30 09:23:00,
2013-01-30 01:28:00,40.1,37.1,30.30,NW,304,0.0,2.0,89,0.00,,,0.00,0.0,WUHU216DAVISVP2,2013-01-30 09:28:00,
2013-01-30 01:33:00,40.1,37.4,30.30,NW,304,0.0,3.0,90,0.00,,,0.00,0.0,WUHU216DAVISVP2,2013-01-30 09:33:00,
2013-01-30 01:38:00,40.5,38.3,30.30,NW,304,1.0,3.0,92,0.00,,,0.00,0.0,WUHU216DAVISVP2,2013-01-30 09:38:00,
2013-01-30 01:43:00,41.0,38.8,30.30,NW,304,0.0,3.0,92,0.00,,,0.00,0.0,WUHU216DAVISVP2,2013-01-30 09:43:00,
2013-01-30 01:48:00,41.1,38.6,30.30,NW,304,1.0,2.0,91,0.00,,,0.00,0.0,WUHU216DAVISVP2,2013-01-30 09:48:00,
2013-01-30 01:53:00,40.9,37.9,30.31,NW,304,0.0,2.0,89,0.00,,,0.00,0.0,WUHU216DAVISVP2,2013-01-30 09:53:00,
2013-01-30 01:58:00,40.8,38.1,30.31,NW,304,0.0,2.0,90,0.00,,,0.00,0.0,WUHU216DAVISVP2,2013-01-30 09:58:00,
2013-01-30 02:05:00,40.8,38.1,30.31,NW,304,0.0,2.0,90,0.00,,,0.00,0.0,WUHU216DAVISVP2,2013-01-30 10:05:00,
2013-01-30 02:10:00,40.7,38.0,30.31,NW,304,0.0,1.0,90,0.00,,,0.00,0.0,WUHU216DAVISVP2,2013-01-30 10:10:00,
2013-01-30 02:15:00,40.7,38.0,30.30,NW,304,0.0,1.0,90,0.00,,,0.00,0.0,WUHU216DAVISVP2,2013-01-30 10:15:00,
2013-01-30 02:20:00,40.7,38.0,30.30,NW,304,1.0,2.0,90,0.00,,,0.00,0.0,WUHU216DAVISVP2,2013-01-30 10:20:00,
2013-01-30 02:25:00,40.9,38.2,30.30,NW,304,1.0,3.0,90,0.00,,,0.00,0.0,WUHU216DAVISVP2,2013-01-30 10:25:00,
2013-01-30 02:30:00,41.0,39.6,30.30,NW,304,2.0,3.0,95,0.00,,,0.00,0.0,WUHU216DAVISVP2,2013-01-30 10:30:00,
2013-01-30 02:35:00,41.7,38.9,30.30,NW,304,3.0,4.0,90,0.00,,,0.00,0.0,WUHU216DAVISVP2,2013-01-30 10:35:00,
2013-01-30 02:40:00,42.1,38.8,30.30,NW,304,1.0,4.0,88,0.00,,,0.00,0.0,WUHU216DAVISVP2,2013-01-30 10:40:00,
2013-01-30 02:46:00,42.3,39.0,30.30,NW,304,3.0,4.0,88,0.00,,,0.00,0.0,WUHU216DAVISVP2,2013-01-30 10:46:00,
2013-01-30 02:51:00,42.4,40.2,30.30,NW,304,2.0,4.0,92,0.00,,,0.00,0.0,WUHU216DAVISVP2,2013-01-30 10:51:00,
2013-01-30 02:56:00,42.6,39.0,30.30,NW,304,1.0,4.0,87,0.00,,,0.00,0.0,WUHU216DAVISVP2,2013-01-30 10:56:00,
2013-01-30 03:01:00,42.5,38.9,30.30,NW,304,0.0,3.0,87,0.00,,,0.00,0.0,WUHU216DAVISVP2,2013-01-30 11:01:00,
2013-01-30 03:06:00,42.4,38.8,30.29,NW,304,0.0,3.0,87,0.00,,,0.00,0.0,WUHU216DAVISVP2,2013-01-30 11:06:00,
2013-01-30 03:11:00,42.1,38.2,30.29,NW,304,0.0,3.0,86,0.00,,,0.00,0.0,WUHU216DAVISVP2,2013-01-30 11:11:00,
2013-01-30 03:16:00,41.4,37.8,30.29,NW,304,0.0,2.0,87,0.00,,,0.00,0.0,WUHU216DAVISVP2,2013-01-30 11:16:00,
2013-01-30 03:21:00,41.2,37.9,30.29,NW,304,0.0,1.0,88,0.00,,,0.00,0.0,WUHU216DAVISVP2,2013-01-30 11:21:00,
2013-01-30 03:26:00,41.0,37.7,30.29,NW,304,0.0,1.0,88,0.00,,,0.00,0.0,WUHU216DAVISVP2,2013-01-30 11:26:00,
2013-01-30 03:31:00,41.1,38.1,30.29,NW,304,1.0,1.0,89,0.00,,,0.00,0.0,WUHU216DAVISVP2,2013-01-30 11:31:00,
2013-01-30 03:36:00,41.3,38.0,30.29,NW,304,0.0,1.0,88,0.00,,,0.00,0.0,WUHU216DAVISVP2,2013-01-30 11:36:00,
2013-01-30 03:41:00,41.2,37.9,30.29,NW,304,0.0,1.0,88,0.00,,,0.00,0.0,WUHU216DAVISVP2,2013-01-30 11:41:00,
2013-01-30 03:46:00,40.9,37.6,30.29,NW,304,0.0,1.0,88,0.00,,,0.00,0.0,WUHU216DAVISVP2,2013-01-30 11:46:00,
2013-01-30 03:51:00,40.6,37.3,30.29,NW,304,0.0,0.0,88,0.00,,,0.00,0.0,WUHU216DAVISVP2,2013-01-30 11:51:00,
2013-01-30 03:56:00,40.2,36.9,30.29,NW,304,1.0,2.0,88,0.00,,,0.00,0.0,WUHU216DAVISVP2,2013-01-30 11:56:00,
2013-01-30 04:01:00,39.9,36.9,30.29,NW,304,1.0,2.0,89,0.00,,,0.00,0.0,WUHU216DAVISVP2,2013-01-30 12:01:00,
2013-01-30 04:06:00,39.6,36.3,30.28,NW,304,0.0,2.0,88,0.00,,,0.00,0.0,WUHU216DAVISVP2,2013-01-30 12:06:00,
2013-01-30 04:11:00,39.2,35.9,30.28,NW,304,0.0,2.0,88,0.00,,,0.00,0.0,WUHU216DAVISVP2,2013-01-30 12:11:00,
2013-01-30 04:16:00,38.8,35.8,30.28,NW,304,0.0,2.0,89,0.00,,,0.00,0.0,WUHU216DAVISVP2,2013-01-30 12:16:00,
2013-01-30 04:21:00,38.3,35.3,30.28,NW,304,0.0,0.0,89,0.00,,,0.00,0.0,WUHU216DAVISVP2,2013-01-30 12:21:00,
2013-01-30 04:26:00,37.8,35.1,30.28,NW,304,0.0,0.0,90,0.00,,,0.00,0.0,WUHU216DAVISVP2,2013-01-30 12:26:00,
2013-01-30 04:31:00,37.3,34.6,30.28,NW,304,0.0,0.0,90,0.00,,,0.00,0.0,WUHU216DAVISVP2,2013-01-30 12:31:00,
2013-01-30 04:36:00,36.8,34.1,30.28,NW,304,0.0,0.0,90,0.00,,,0.00,0.0,WUHU216DAVISVP2,2013-01-30 12:36:00,
2013-01-30 04:41:00,36.6,34.2,30.28,NW,304,0.0,0.0,91,0.00,,,0.00,0.0,WUHU216DAVISVP2,2013-01-30 12:41:00,
2013-01-30 04:46:00,36.6,34.4,30.28,NW,304,0.0,0.0,92,0.00,,,0.00,0.0,WUHU216DAVISVP2,2013-01-30 12:46:00,
2013-01-30 04:51:00,36.6,34.7,30.28,NW,304,0.0,0.0,93,0.00,,,0.00,0.0,WUHU216DAVISVP2,2013-01-30 12:51:00,
2013-01-30 04:56:00,36.6,34.7,30.28,NW,304,0.0,0.0,93,0.00,,,0.00,0.0,WUHU216DAVISVP2,2013-01-30 12:56:00,
2013-01-30 05:01:00,36.7,34.8,30.28,NW,304,0.0,0.0,93,0.00,,,0.00,0.0,WUHU216DAVISVP2,2013-01-30 13:01:00,
2013-01-30 05:06:00,37.4,35.8,30.28,NW,304,0.0,0.0,94,0.00,,,0.00,0.0,WUHU216DAVISVP2,2013-01-30 13:06:00,
2013-01-30 05:11:00,37.7,36.1,30.28,NW,304,0.0,0.0,94,0.00,,,0.00,0.0,WUHU216DAVISVP2,2013-01-30 13:11:00,
2013-01-30 05:16:00,37.9,36.3,30.28,NW,304,0.0,0.0,94,0.00,,,0.00,0.0,WUHU216DAVISVP2,2013-01-30 13:16:00,
2013-01-30 05:21:00,37.8,36.2,30.28,NW,304,0.0,0.0,94,0.00,,,0.00,0.0,WUHU216DAVISVP2,2013-01-30 13:21:00,
2013-01-30 05:26:00,37.3,35.1,30.28,NW,304,0.0,0.0,92,0.00,,,0.00,0.0,WUHU216DAVISVP2,2013-01-30 13:26:00,
2013-01-30 05:31:00,36.6,34.4,30.28,NW,304,0.0,0.0,92,0.00,,,0.00,0.0,WUHU216DAVISVP2,2013-01-30 13:31:00,
2013-01-30 05:36:00,37.0,35.1,30.29,NW,304,1.0,2.0,93,0.00,,,0.00,0.0,WUHU216DAVISVP2,2013-01-30 13:36:00,
2013-01-30 05:41:00,37.3,35.7,30.29,NW,304,0.0,2.0,94,0.00,,,0.00,0.0,WUHU216DAVISVP2,2013-01-30 13:41:00,
2013-01-30 05:46:00,37.0,35.1,30.29,NW,304,0.0,2.0,93,0.00,,,0.00,0.0,WUHU216DAVISVP2,2013-01-30 13:46:00,
2013-01-30 05:51:00,36.9,34.7,30.29,NW,304,0.0,2.0,92,0.00,,,0.00,0.0,WUHU216DAVISVP2,2013-01-30 13:51:00,
2013-01-30 05:56:00,36.7,34.5,30.29,NW,304,0.0,2.0,92,0.00,,,0.00,0.0,WUHU216DAVISVP2,2013-01-30 13:56:00,
2013-01-30 06:01:00,36.5,34.3,30.29,NW,304,0.0,1.0,92,0.00,,,0.00,0.0,WUHU216DAVISVP2,2013-01-30 14:01:00,
2013-01-30 06:06:00,36.6,34.7,30.29,NW,304,1.0,1.0,93,0.00,,,0.00,0.0,WUHU216DAVISVP2,2013-01-30 14:06:00,
2013-01-30 06:11:00,36.7,34.8,30.30,NW,304,2.0,2.0,93,0.00,,,0.00,0.0,WUHU216DAVISVP2,2013-01-30 14:11:00,
2013-01-30 06:16:00,36.8,34.9,30.30,NW,304,0.0,2.0,93,0.00,,,0.00,0.0,WUHU216DAVISVP2,2013-01-30 14:16:00,
2013-01-30 06:21:00,36.8,34.9,30.30,NW,304,0.0,2.0,93,0.00,,,0.00,0.0,WUHU216DAVISVP2,2013-01-30 14:21:00,
2013-01-30 06:26:00,36.8,34.6,30.30,NW,304,0.0,2.0,92,0.00,,,0.00,0.0,WUHU216DAVISVP2,2013-01-30 14:26:00,
2013-01-30 06:31:00,36.5,34.3,30.30,NW,304,0.0,2.0,92,0.00,,,0.00,0.0,WUHU216DAVISVP2,2013-01-30 14:31:00,
2013-01-30 06:36:00,36.3,34.2,30.30,NW,304,0.0,2.0,92,0.00,,,0.00,0.0,WUHU216DAVISVP2,2013-01-30 14:36:00,
2013-01-30 06:41:00,36.2,34.1,30.30,NW,304,0.0,1.0,92,0.00,,,0.00,0.0,WUHU216DAVISVP2,2013-01-30 14:41:00,
2013-01-30 06:46:00,36.1,34.0,30.31,NW,304,0.0,1.0,92,0.00,,,0.00,0.0,WUHU216DAVISVP2,2013-01-30 14:46:00,
2013-01-30 06:51:00,36.0,33.9,30.31,NW,304,0.0,1.0,92,0.00,,,0.00,0.0,WUHU216DAVISVP2,2013-01-30 14:51:00,
2013-01-30 06:56:00,35.7,33.6,30.31,NW,304,0.0,1.0,92,0.00,,,0.00,0.0,WUHU216DAVISVP2,2013-01-30 14:56:00,
2013-01-30 07:01:00,35.5,33.4,30.31,NW,304,0.0,0.0,92,0.00,,,0.00,5.0,WUHU216DAVISVP2,2013-01-30 15:01:00,
2013-01-30 07:06:00,35.4,33.3,30.32,NW,304,0.0,0.0,92,0.00,,,0.00,7.0,WUHU216DAVISVP2,2013-01-30 15:06:00,
2013-01-30 07:11:00,35.2,33.1,30.32,NW,304,0.0,0.0,92,0.00,,,0.00,11.0,WUHU216DAVISVP2,2013-01-30 15:11:00,
2013-01-30 07:16:00,35.0,32.9,30.32,NW,304,0.0,1.0,92,0.00,,,0.00,14.0,WUHU216DAVISVP2,2013-01-30 15:16:00,
2013-01-30 07:21:00,35.0,32.9,30.32,NW,304,0.0,1.0,92,0.00,,,0.00,19.0,WUHU216DAVISVP2,2013-01-30 15:21:00,
2013-01-30 07:26:00,35.1,33.3,30.33,NW,304,1.0,2.0,93,0.00,,,0.00,25.0,WUHU216DAVISVP2,2013-01-30 15:26:00,
2013-01-30 07:31:00,35.5,33.7,30.33,NW,304,1.0,2.0,93,0.00,,,0.00,35.0,WUHU216DAVISVP2,2013-01-30 15:31:00,
2013-01-30 07:36:00,36.0,34.4,30.33,NW,304,0.0,2.0,94,0.00,,,0.00,46.0,WUHU216DAVISVP2,2013-01-30 15:36:00,
2013-01-30 07:41:00,36.7,35.1,30.33,NW,304,0.0,2.0,94,0.00,,,0.00,58.0,WUHU216DAVISVP2,2013-01-30 15:41:00,
2013-01-30 07:46:00,37.5,35.6,30.33,NW,304,0.0,2.0,93,0.00,,,0.00,69.0,WUHU216DAVISVP2,2013-01-30 15:46:00,
2013-01-30 07:51:00,38.2,36.0,30.33,NW,304,0.0,0.0,92,0.00,,,0.00,83.0,WUHU216DAVISVP2,2013-01-30 15:51:00,
2013-01-30 07:56:00,38.8,36.4,30.33,NW,304,0.0,0.0,91,0.00,,,0.00,95.0,WUHU216DAVISVP2,2013-01-30 15:56:00,
2013-01-30 08:01:00,39.6,37.2,30.33,NW,304,0.0,0.0,91,0.00,,,0.00,111.0,WUHU216DAVISVP2,2013-01-30 16:01:00,
2013-01-30 08:06:00,40.2,37.5,30.33,NW,304,0.0,0.0,90,0.00,,,0.00,127.0,WUHU216DAVISVP2,2013-01-30 16:06:00,
2013-01-30 08:11:00,41.3,38.5,30.34,NW,304,0.0,0.0,90,0.00,,,0.00,142.0,WUHU216DAVISVP2,2013-01-30 16:11:00,
2013-01-30 08:16:00,42.3,39.0,30.34,NW,304,0.0,1.0,88,0.00,,,0.00,158.0,WUHU216DAVISVP2,2013-01-30 16:16:00,
2013-01-30 08:21:00,43.0,39.4,30.34,NW,304,0.0,1.0,87,0.00,,,0.00,174.0,WUHU216DAVISVP2,2013-01-30 16:21:00,
2013-01-30 08:26:00,43.8,39.9,30.34,NW,304,0.0,1.0,86,0.00,,,0.00,190.0,WUHU216DAVISVP2,2013-01-30 16:26:00,
2013-01-30 08:31:00,44.4,39.9,30.34,NW,304,0.0,2.0,84,0.00,,,0.00,202.0,WUHU216DAVISVP2,2013-01-30 16:31:00,
2013-01-30 08:36:00,45.0,39.8,30.34,NW,304,2.0,2.0,82,0.00,,,0.00,218.0,WUHU216DAVISVP2,2013-01-30 16:36:00,
2013-01-30 08:41:00,45.4,40.2,30.35,NW,304,0.0,2.0,82,0.00,,,0.00,232.0,WUHU216DAVISVP2,2013-01-30 16:41:00,
2013-01-30 08:46:00,46.1,40.6,30.35,NW,304,0.0,2.0,81,0.00,,,0.00,246.0,WUHU216DAVISVP2,2013-01-30 16:46:00,
2013-01-30 08:51:00,46.4,40.2,30.35,NW,304,0.0,2.0,79,0.00,,,0.00,258.0,WUHU216DAVISVP2,2013-01-30 16:51:00,
2013-01-30 08:56:00,47.0,40.9,30.35,NW,304,0.0,2.0,79,0.00,,,0.00,274.0,WUHU216DAVISVP2,2013-01-30 16:56:00,
2013-01-30 09:01:00,47.1,40.6,30.35,NW,304,2.0,3.0,78,0.00,,,0.00,290.0,WUHU216DAVISVP2,2013-01-30 17:01:00,
2013-01-30 09:06:00,47.0,40.5,30.35,NW,304,4.0,5.0,78,0.00,,,0.00,311.0,WUHU216DAVISVP2,2013-01-30 17:06:00,
2013-01-30 09:11:00,47.1,41.0,30.35,NW,304,2.0,5.0,79,0.00,,,0.00,323.0,WUHU216DAVISVP2,2013-01-30 17:11:00,
2013-01-30 09:16:00,47.3,41.2,30.35,NW,304,4.0,5.0,79,0.00,,,0.00,334.0,WUHU216DAVISVP2,2013-01-30 17:16:00,
2013-01-30 09:21:00,47.9,41.4,30.35,NW,304,2.0,5.0,78,0.00,,,0.00,348.0,WUHU216DAVISVP2,2013-01-30 17:21:00,
2013-01-30 09:26:00,48.4,41.6,30.35,NW,304,0.0,5.0,77,0.00,,,0.00,360.0,WUHU216DAVISVP2,2013-01-30 17:26:00,
2013-01-30 09:31:00,48.9,41.7,30.35,NW,304,1.0,5.0,76,0.00,,,0.00,374.0,WUHU216DAVISVP2,2013-01-30 17:31:00,
2013-01-30 09:36:00,49.3,42.1,30.35,NW,304,3.0,5.0,76,0.00,,,0.00,387.0,WUHU216DAVISVP2,2013-01-30 17:36:00,
2013-01-30 09:41:00,49.6,42.0,30.35,NW,304,3.0,4.0,75,0.00,,,0.00,397.0,WUHU216DAVISVP2,2013-01-30 17:41:00,
2013-01-30 09:46:00,50.0,41.7,30.35,SW,225,2.0,5.0,73,0.00,,,0.00,410.0,WUHU216DAVISVP2,2013-01-30 17:46:00,
2013-01-30 09:51:00,50.1,41.8,30.35,SSW,202,2.0,5.0,73,0.00,,,0.00,420.0,WUHU216DAVISVP2,2013-01-30 17:51:00,
2013-01-30 09:56:00,50.5,42.3,30.36,WSW,256,0.0,5.0,73,0.00,,,0.00,432.0,WUHU216DAVISVP2,2013-01-30 17:56:00,
2013-01-30 10:01:00,50.8,41.8,30.36,SW,221,2.0,5.0,71,0.00,,,0.00,443.0,WUHU216DAVISVP2,2013-01-30 18:01:00,
2013-01-30 10:06:00,50.8,41.8,30.36,WSW,250,2.0,7.0,71,0.00,,,0.00,452.0,WUHU216DAVISVP2,2013-01-30 18:06:00,
2013-01-30 10:11:00,51.4,42.0,30.36,WSW,250,1.0,7.0,70,0.00,,,0.00,461.0,WUHU216DAVISVP2,2013-01-30 18:11:00,
2013-01-30 10:16:00,52.2,42.4,30.36,SSE,155,0.0,7.0,69,0.00,,,0.00,471.0,WUHU216DAVISVP2,2013-01-30 18:16:00,
2013-01-30 10:21:00,52.8,42.3,30.36,SSE,155,0.0,7.0,67,0.00,,,0.00,480.0,WUHU216DAVISVP2,2013-01-30 18:21:00,
2013-01-30 10:26:00,53.0,42.1,30.37,SSE,162,1.0,3.0,66,0.00,,,0.00,489.0,WUHU216DAVISVP2,2013-01-30 18:26:00,
2013-01-30 10:31:00,52.9,42.4,30.37,SSE,162,0.0,3.0,67,0.00,,,0.00,496.0,WUHU216DAVISVP2,2013-01-30 18:31:00,
2013-01-30 10:36:00,53.3,42.7,30.36,SSE,162,2.0,3.0,67,0.00,,,0.00,504.0,WUHU216DAVISVP2,2013-01-30 18:36:00,
2013-01-30 10:41:00,53.9,42.5,30.37,North,5,2.0,4.0,65,0.00,,,0.00,512.0,WUHU216DAVISVP2,2013-01-30 18:41:00,
2013-01-30 10:46:00,53.6,42.2,30.36,NNE,15,1.0,4.0,65,0.00,,,0.00,517.0,WUHU216DAVISVP2,2013-01-30 18:46:00,
2013-01-30 10:51:00,53.5,42.5,30.36,NNE,15,0.0,4.0,66,0.00,,,0.00,522.0,WUHU216DAVISVP2,2013-01-30 18:51:00,
2013-01-30 10:56:00,54.1,42.7,30.36,NNE,15,0.0,4.0,65,0.00,,,0.00,529.0,WUHU216DAVISVP2,2013-01-30 18:56:00,
2013-01-30 11:01:00,54.7,42.9,30.36,NNE,15,0.0,3.0,64,0.00,,,0.00,534.0,WUHU216DAVISVP2,2013-01-30 19:01:00,
2013-01-30 11:06:00,54.8,43.0,30.36,West,269,3.0,3.0,64,0.00,,,0.00,541.0,WUHU216DAVISVP2,2013-01-30 19:06:00,
2013-01-30 11:11:00,54.7,42.9,30.36,West,271,1.0,4.0,64,0.00,,,0.00,550.0,WUHU216DAVISVP2,2013-01-30 19:11:00,
2013-01-30 11:17:00,54.9,43.1,30.36,West,271,0.0,4.0,64,0.00,,,0.00,555.0,WUHU216DAVISVP2,2013-01-30 19:17:00,
2013-01-30 11:22:00,55.4,43.1,30.35,West,281,3.0,4.0,63,0.00,,,0.00,564.0,WUHU216DAVISVP2,2013-01-30 19:22:00,
2013-01-30 11:27:00,55.7,43.0,30.35,WNW,291,3.0,4.0,62,0.00,,,0.00,563.0,WUHU216DAVISVP2,2013-01-30 19:27:00,
2013-01-30 11:32:00,55.4,42.7,30.35,NW,306,1.0,4.0,62,0.00,,,0.00,570.0,WUHU216DAVISVP2,2013-01-30 19:32:00,
2013-01-30 11:37:00,55.7,42.9,30.35,NW,306,3.0,4.0,62,0.00,,,0.00,573.0,WUHU216DAVISVP2,2013-01-30 19:37:00,
2013-01-30 11:42:00,55.7,43.3,30.35,NW,306,1.0,4.0,63,0.00,,,0.00,575.0,WUHU216DAVISVP2,2013-01-30 19:42:00,
2013-01-30 11:47:00,56.3,43.4,30.35,NW,306,0.0,4.0,62,0.00,,,0.00,577.0,WUHU216DAVISVP2,2013-01-30 19:47:00,
2013-01-30 11:52:00,56.7,43.0,30.34,NW,306,0.0,4.0,60,0.00,,,0.00,577.0,WUHU216DAVISVP2,2013-01-30 19:52:00,
2013-01-30 11:57:00,57.2,43.0,30.34,NW,306,0.0,4.0,59,0.00,,,0.00,577.0,WUHU216DAVISVP2,2013-01-30 19:57:00,
2013-01-30 12:02:00,57.3,42.6,30.34,NNE,31,0.0,5.0,58,0.00,,,0.00,578.0,WUHU216DAVISVP2,2013-01-30 20:02:00,
2013-01-30 12:07:00,57.0,42.4,30.33,East,79,5.0,7.0,58,0.00,,,0.00,580.0,WUHU216DAVISVP2,2013-01-30 20:07:00,
2013-01-30 12:12:00,56.6,42.4,30.33,East,92,2.0,7.0,59,0.00,,,0.00,584.0,WUHU216DAVISVP2,2013-01-30 20:12:00,
2013-01-30 12:17:00,56.6,42.4,30.33,ENE,71,4.0,7.0,59,0.00,,,0.00,582.0,WUHU216DAVISVP2,2013-01-30 20:17:00,
2013-01-30 12:22:00,56.6,42.0,30.33,NE,55,0.0,7.0,58,0.00,,,0.00,578.0,WUHU216DAVISVP2,2013-01-30 20:22:00,
2013-01-30 12:27:00,57.5,42.4,30.32,NNE,30,2.0,7.0,57,0.00,,,0.00,584.0,WUHU216DAVISVP2,2013-01-30 20:27:00,
2013-01-30 12:32:00,58.3,42.2,30.32,NE,39,4.0,5.0,55,0.00,,,0.00,578.0,WUHU216DAVISVP2,2013-01-30 20:32:00,
2013-01-30 12:37:00,57.7,41.6,30.32,ENE,78,3.0,5.0,55,0.00,,,0.00,575.0,WUHU216DAVISVP2,2013-01-30 20:37:00,
2013-01-30 12:42:00,57.6,42.0,30.32,ENE,75,0.0,5.0,56,0.00,,,0.00,573.0,WUHU216DAVISVP2,2013-01-30 20:42:00,
2013-01-30 12:47:00,58.3,42.3,30.32,ESE,113,2.0,5.0,55,0.00,,,0.00,573.0,WUHU216DAVISVP2,2013-01-30 20:47:00,
2013-01-30 12:52:00,58.2,42.2,30.32,East,92,1.0,6.0,55,0.00,,,0.00,573.0,WUHU216DAVISVP2,2013-01-30 20:52:00,
2013-01-30 12:57:00,58.4,42.4,30.31,ENE,67,2.0,6.0,55,0.00,,,0.00,568.0,WUHU216DAVISVP2,2013-01-30 20:57:00,
2013-01-30 13:02:00,58.5,42.5,30.31,ENE,67,2.0,6.0,55,0.00,,,0.00,561.0,WUHU216DAVISVP2,2013-01-30 21:02:00,
2013-01-30 13:07:00,58.5,42.0,30.31,ENE,67,2.0,6.0,54,0.00,,,0.00,557.0,WUHU216DAVISVP2,2013-01-30 21:07:00,
2013-01-30 13:12:00,58.6,42.1,30.31,ESE,108,3.0,5.0,54,0.00,,,0.00,552.0,WUHU216DAVISVP2,2013-01-30 21:12:00,
2013-01-30 13:17:00,58.7,42.2,30.30,ENE,76,1.0,5.0,54,0.00,,,0.00,547.0,WUHU216DAVISVP2,2013-01-30 21:17:00,
2013-01-30 13:22:00,59.3,42.7,30.30,WNW,296,3.0,5.0,54,0.00,,,0.00,543.0,WUHU216DAVISVP2,2013-01-30 21:22:00,
2013-01-30 13:27:00,59.6,42.5,30.30,North,355,3.0,6.0,53,0.00,,,0.00,540.0,WUHU216DAVISVP2,2013-01-30 21:27:00,
2013-01-30 13:32:00,59.8,42.2,30.30,East,89,3.0,6.0,52,0.00,,,0.00,533.0,WUHU216DAVISVP2,2013-01-30 21:32:00,
2013-01-30 13:37:00,59.7,41.6,30.30,ENE,72,0.0,6.0,51,0.00,,,0.00,526.0,WUHU216DAVISVP2,2013-01-30 21:37:00,
2013-01-30 13:42:00,60.5,42.3,30.29,ENE,72,0.0,6.0,51,0.00,,,0.00,517.0,WUHU216DAVISVP2,2013-01-30 21:42:00,
2013-01-30 13:47:00,60.5,41.8,30.29,East,81,1.0,5.0,50,0.00,,,0.00,510.0,WUHU216DAVISVP2,2013-01-30 21:47:00,
2013-01-30 13:52:00,60.4,41.7,30.29,ESE,117,0.0,7.0,50,0.00,,,0.00,504.0,WUHU216DAVISVP2,2013-01-30 21:52:00,
2013-01-30 13:57:00,60.6,41.9,30.29,East,81,5.0,7.0,50,0.00,,,0.00,494.0,WUHU216DAVISVP2,2013-01-30 21:57:00,
2013-01-30 14:02:00,60.6,41.9,30.28,SE,124,2.0,7.0,50,0.00,,,0.00,485.0,WUHU216DAVISVP2,2013-01-30 22:02:00,
2013-01-30 14:07:00,60.9,41.6,30.28,ESE,111,0.0,7.0,49,0.00,,,0.00,476.0,WUHU216DAVISVP2,2013-01-30 22:07:00,
2013-01-30 14:12:00,60.8,41.5,30.28,ESE,119,2.0,7.0,49,0.00,,,0.00,466.0,WUHU216DAVISVP2,2013-01-30 22:12:00,
2013-01-30 14:17:00,60.5,41.8,30.28,East,80,0.0,7.0,50,0.00,,,0.00,455.0,WUHU216DAVISVP2,2013-01-30 22:17:00,
2013-01-30 14:22:00,60.9,42.1,30.28,SE,132,1.0,7.0,50,0.00,,,0.00,438.0,WUHU216DAVISVP2,2013-01-30 22:22:00,
2013-01-30 14:27:00,61.8,42.4,30.28,SSE,155,0.0,7.0,49,0.00,,,0.00,438.0,WUHU216DAVISVP2,2013-01-30 22:27:00,
2013-01-30 14:32:00,62.2,41.7,30.28,SSE,155,0.0,4.0,47,0.00,,,0.00,427.0,WUHU216DAVISVP2,2013-01-30 22:32:00,
2013-01-30 14:37:00,61.8,41.9,30.28,East,98,1.0,5.0,48,0.00,,,0.00,413.0,WUHU216DAVISVP2,2013-01-30 22:37:00,
2013-01-30 14:42:00,61.9,42.0,30.28,SSW,201,4.0,5.0,48,0.00,,,0.00,401.0,WUHU216DAVISVP2,2013-01-30 22:42:00,
2013-01-30 14:47:00,62.0,42.1,30.28,South,191,0.0,5.0,48,0.00,,,0.00,388.0,WUHU216DAVISVP2,2013-01-30 22:47:00,
2013-01-30 14:52:00,62.9,42.4,30.28,South,191,1.0,5.0,47,0.00,,,0.00,374.0,WUHU216DAVISVP2,2013-01-30 22:52:00,
2013-01-30 14:57:00,63.5,42.3,30.28,SSW,196,2.0,5.0,46,0.00,,,0.00,362.0,WUHU216DAVISVP2,2013-01-30 22:57:00,
2013-01-30 15:02:00,63.1,42.5,30.28,SSW,208,5.0,5.0,47,0.00,,,0.00,320.0,WUHU216DAVISVP2,2013-01-30 23:02:00,
2013-01-30 15:07:00,62.8,42.2,30.28,SSW,211,1.0,5.0,47,0.00,,,0.00,343.0,WUHU216DAVISVP2,2013-01-30 23:07:00,
2013-01-30 15:12:00,63.0,42.4,30.28,SW,229,6.0,6.0,47,0.00,,,0.00,329.0,WUHU216DAVISVP2,2013-01-30 23:12:00,
2013-01-30 15:17:00,62.7,42.1,30.28,NW,319,3.0,7.0,47,0.00,,,0.00,313.0,WUHU216DAVISVP2,2013-01-30 23:17:00,
2013-01-30 15:22:00,62.7,42.7,30.28,West,269,6.0,7.0,48,0.00,,,0.00,299.0,WUHU216DAVISVP2,2013-01-30 23:22:00,
2013-01-30 15:27:00,62.3,42.3,30.28,West,279,3.0,7.0,48,0.00,,,0.00,281.0,WUHU216DAVISVP2,2013-01-30 23:27:00,
2013-01-30 15:32:00,62.1,42.2,30.28,West,265,4.0,7.0,48,0.00,,,0.00,269.0,WUHU216DAVISVP2,2013-01-30 23:32:00,
2013-01-30 15:37:00,62.0,42.1,30.28,WSW,241,4.0,7.0,48,0.00,,,0.00,251.0,WUHU216DAVISVP2,2013-01-30 23:37:00,
2013-01-30 15:42:00,62.0,42.6,30.28,SSW,207,5.0,7.0,49,0.00,,,0.00,234.0,WUHU216DAVISVP2,2013-01-30 23:42:00,
2013-01-30 15:47:00,62.2,42.2,30.27,SSW,198,3.0,7.0,48,0.00,,,0.00,216.0,WUHU216DAVISVP2,2013-01-30 23:47:00,
2013-01-30 15:52:00,62.3,42.3,30.27,SSW,198,0.0,7.0,48,0.00,,,0.00,197.0,WUHU216DAVISVP2,2013-01-30 23:52:00,
2013-01-30 15:57:00,62.5,42.5,30.27,SSW,200,2.0,7.0,48,0.00,,,0.00,179.0,WUHU216DAVISVP2,2013-01-30 23:57:00,
2013-01-30 16:02:00,62.2,42.3,30.27,SW,228,2.0,5.0,48,0.00,,,0.00,162.0,WUHU216DAVISVP2,2013-01-31 00:02:00,
2013-01-30 16:07:00,62.4,42.4,30.27,SW,228,0.0,5.0,48,0.00,,,0.00,144.0,WUHU216DAVISVP2,2013-01-31 00:07:00,
2013-01-30 16:12:00,62.5,42.5,30.27,SW,228,0.0,5.0,48,0.00,,,0.00,128.0,WUHU216DAVISVP2,2013-01-31 00:12:00,
2013-01-30 16:17:00,62.7,42.7,30.27,SW,228,1.0,5.0,48,0.00,,,0.00,114.0,WUHU216DAVISVP2,2013-01-31 00:17:00,
2013-01-30 16:22:00,63.0,43.0,30.27,SW,228,1.0,3.0,48,0.00,,,0.00,98.0,WUHU216DAVISVP2,2013-01-31 00:22:00,
2013-01-30 16:27:00,62.6,42.6,30.26,SW,228,0.0,4.0,48,0.00,,,0.00,84.0,WUHU216DAVISVP2,2013-01-31 00:27:00,
2013-01-30 16:33:00,62.4,42.4,30.27,SW,228,0.0,4.0,48,0.00,,,0.00,67.0,WUHU216DAVISVP2,2013-01-31 00:33:00,
2013-01-30 16:38:00,62.3,41.8,30.26,SW,228,1.0,4.0,47,0.00,,,0.00,54.0,WUHU216DAVISVP2,2013-01-31 00:38:00,
2013-01-30 16:43:00,62.3,42.3,30.26,SW,228,0.0,4.0,48,0.00,,,0.00,44.0,WUHU216DAVISVP2,2013-01-31 00:43:00,
2013-01-30 16:48:00,62.3,42.3,30.26,SW,228,1.0,3.0,48,0.00,,,0.00,33.0,WUHU216DAVISVP2,2013-01-31 00:48:00,
2013-01-30 16:53:00,62.2,42.2,30.26,SW,228,0.0,3.0,48,0.00,,,0.00,28.0,WUHU216DAVISVP2,2013-01-31 00:53:00,
2013-01-30 16:58:00,62.3,42.3,30.26,SW,228,0.0,3.0,48,0.00,,,0.00,23.0,WUHU216DAVISVP2,2013-01-31 00:58:00,
2013-01-30 17:03:00,62.1,42.2,30.26,SW,228,1.0,3.0,48,0.00,,,0.00,19.0,WUHU216DAVISVP2,2013-01-31 01:03:00,
2013-01-30 17:08:00,61.7,42.3,30.26,SW,228,0.0,2.0,49,0.00,,,0.00,16.0,WUHU216DAVISVP2,2013-01-31 01:08:00,
2013-01-30 17:13:00,61.3,42.5,30.26,SW,228,1.0,3.0,50,0.00,,,0.00,12.0,WUHU216DAVISVP2,2013-01-31 01:13:00,
2013-01-30 17:18:00,60.7,42.5,30.26,SW,228,1.0,3.0,51,0.00,,,0.00,7.0,WUHU216DAVISVP2,2013-01-31 01:18:00,
2013-01-30 17:24:00,59.8,42.7,30.26,SW,228,4.0,5.0,53,0.00,,,0.00,0.0,WUHU216DAVISVP2,2013-01-31 01:24:00,
2013-01-30 17:29:00,59.2,42.6,30.26,SW,228,2.0,5.0,54,0.00,,,0.00,0.0,WUHU216DAVISVP2,2013-01-31 01:29:00,
2013-01-30 17:34:00,58.7,42.6,30.26,SW,228,1.0,5.0,55,0.00,,,0.00,0.0,WUHU216DAVISVP2,2013-01-31 01:34:00,
2013-01-30 17:39:00,58.4,42.8,30.26,SW,228,0.0,4.0,56,0.00,,,0.00,0.0,WUHU216DAVISVP2,2013-01-31 01:39:00,
2013-01-30 17:44:00,58.0,42.5,30.26,SW,228,1.0,4.0,56,0.00,,,0.00,0.0,WUHU216DAVISVP2,2013-01-31 01:44:00,
2013-01-30 17:49:00,57.7,42.2,30.26,SW,228,0.0,3.0,56,0.00,,,0.00,0.0,WUHU216DAVISVP2,2013-01-31 01:49:00,
2013-01-30 17:54:00,57.5,42.5,30.26,SW,228,0.0,3.0,57,0.00,,,0.00,0.0,WUHU216DAVISVP2,2013-01-31 01:54:00,
2013-01-30 17:59:00,57.3,42.3,30.26,SW,228,0.0,2.0,57,0.00,,,0.00,0.0,WUHU216DAVISVP2,2013-01-31 01:59:00,
2013-01-30 18:04:00,56.7,42.6,30.27,SW,228,0.0,2.0,59,0.00,,,0.00,0.0,WUHU216DAVISVP2,2013-01-31 02:04:00,
2013-01-30 18:09:00,56.2,42.6,30.27,SW,228,0.0,0.0,60,0.00,,,0.00,0.0,WUHU216DAVISVP2,2013-01-31 02:09:00,
2013-01-30 18:14:00,55.9,42.8,30.27,SW,228,0.0,0.0,61,0.00,,,0.00,0.0,WUHU216DAVISVP2,2013-01-31 02:14:00,
2013-01-30 18:19:00,55.6,43.3,30.27,SW,228,0.0,0.0,63,0.00,,,0.00,0.0,WUHU216DAVISVP2,2013-01-31 02:19:00,
2013-01-30 18:24:00,55.2,42.5,30.27,SW,228,0.0,0.0,62,0.00,,,0.00,0.0,WUHU216DAVISVP2,2013-01-31 02:24:00,
2013-01-30 18:29:00,54.8,43.0,30.27,SW,228,0.0,0.0,64,0.00,,,0.00,0.0,WUHU216DAVISVP2,2013-01-31 02:29:00,
2013-01-30 18:34:00,54.5,42.7,30.27,SW,228,0.0,0.0,64,0.00,,,0.00,0.0,WUHU216DAVISVP2,2013-01-31 02:34:00,
2013-01-30 18:39:00,54.2,42.4,30.27,SW,228,0.0,0.0,64,0.00,,,0.00,0.0,WUHU216DAVISVP2,2013-01-31 02:39:00,
2013-01-30 18:44:00,54.1,42.7,30.27,SW,228,0.0,0.0,65,0.00,,,0.00,0.0,WUHU216DAVISVP2,2013-01-31 02:44:00,
2013-01-30 18:49:00,54.0,42.6,30.27,SW,228,0.0,0.0,65,0.00,,,0.00,0.0,WUHU216DAVISVP2,2013-01-31 02:49:00,
2013-01-30 18:54:00,53.8,42.8,30.27,SW,228,0.0,0.0,66,0.00,,,0.00,0.0,WUHU216DAVISVP2,2013-01-31 02:54:00,
2013-01-30 18:59:00,53.6,42.6,30.27,SW,228,0.0,0.0,66,0.00,,,0.00,0.0,WUHU216DAVISVP2,2013-01-31 02:59:00,
2013-01-30 19:04:00,53.3,42.7,30.27,SW,228,0.0,0.0,67,0.00,,,0.00,0.0,WUHU216DAVISVP2,2013-01-31 03:04:00,
2013-01-30 19:09:00,52.9,42.4,30.27,SW,228,0.0,0.0,67,0.00,,,0.00,0.0,WUHU216DAVISVP2,2013-01-31 03:09:00,
2013-01-30 19:14:00,52.4,42.6,30.27,SW,228,0.0,0.0,69,0.00,,,0.00,0.0,WUHU216DAVISVP2,2013-01-31 03:14:00,
2013-01-30 19:19:00,51.9,42.5,30.27,SW,228,0.0,0.0,70,0.00,,,0.00,0.0,WUHU216DAVISVP2,2013-01-31 03:19:00,
2013-01-30 19:24:00,51.5,42.5,30.27,SW,228,0.0,1.0,71,0.00,,,0.00,0.0,WUHU216DAVISVP2,2013-01-31 03:24:00,
2013-01-30 19:29:00,51.1,42.5,30.27,SW,228,0.0,1.0,72,0.00,,,0.00,0.0,WUHU216DAVISVP2,2013-01-31 03:29:00,
2013-01-30 19:34:00,50.6,42.4,30.27,SW,228,0.0,1.0,73,0.00,,,0.00,0.0,WUHU216DAVISVP2,2013-01-31 03:34:00,
2013-01-30 19:39:00,50.1,42.2,30.27,SW,228,0.0,1.0,74,0.00,,,0.00,0.0,WUHU216DAVISVP2,2013-01-31 03:39:00,
2013-01-30 19:44:00,49.6,41.4,30.27,SW,228,0.0,0.0,73,0.00,,,0.00,0.0,WUHU216DAVISVP2,2013-01-31 03:44:00,
2013-01-30 19:49:00,49.2,41.6,30.27,SW,228,0.0,0.0,75,0.00,,,0.00,0.0,WUHU216DAVISVP2,2013-01-31 03:49:00,
2013-01-30 19:54:00,49.0,41.8,30.27,SW,228,0.0,0.0,76,0.00,,,0.00,0.0,WUHU216DAVISVP2,2013-01-31 03:54:00,
2013-01-30 19:59:00,48.8,41.6,30.27,SW,228,0.0,0.0,76,0.00,,,0.00,0.0,WUHU216DAVISVP2,2013-01-31 03:59:00,
2013-01-30 20:04:00,48.5,41.7,30.27,SW,228,0.0,0.0,77,0.00,,,0.00,0.0,WUHU216DAVISVP2,2013-01-31 04:04:00,
2013-01-30 20:09:00,48.3,41.8,30.27,SW,228,0.0,0.0,78,0.00,,,0.00,0.0,WUHU216DAVISVP2,2013-01-31 04:09:00,
2013-01-30 20:14:00,48.0,41.5,30.27,SW,228,0.0,0.0,78,0.00,,,0.00,0.0,WUHU216DAVISVP2,2013-01-31 04:14:00,
2013-01-30 20:19:00,47.7,41.2,30.27,SW,228,0.0,0.0,78,0.00,,,0.00,0.0,WUHU216DAVISVP2,2013-01-31 04:19:00,
2013-01-30 20:24:00,47.6,41.4,30.27,SW,228,0.0,0.0,79,0.00,,,0.00,0.0,WUHU216DAVISVP2,2013-01-31 04:24:00,
2013-01-30 20:29:00,47.4,41.3,30.27,SW,228,0.0,0.0,79,0.00,,,0.00,0.0,WUHU216DAVISVP2,2013-01-31 04:29:00,
2013-01-30 20:34:00,47.4,41.3,30.27,SW,228,0.0,0.0,79,0.00,,,0.00,0.0,WUHU216DAVISVP2,2013-01-31 04:34:00,
2013-01-30 20:39:00,47.3,40.8,30.27,SW,228,0.0,0.0,78,0.00,,,0.00,0.0,WUHU216DAVISVP2,2013-01-31 04:39:00,
2013-01-30 20:44:00,46.9,41.1,30.27,SW,228,0.0,0.0,80,0.00,,,0.00,0.0,WUHU216DAVISVP2,2013-01-31 04:44:00,
2013-01-30 20:49:00,46.7,41.2,30.27,SW,228,0.0,0.0,81,0.00,,,0.00,0.0,WUHU216DAVISVP2,2013-01-31 04:49:00,
2013-01-30 20:54:00,46.7,41.2,30.27,SW,228,0.0,0.0,81,0.00,,,0.00,0.0,WUHU216DAVISVP2,2013-01-31 04:54:00,
2013-01-30 20:59:00,46.2,40.7,30.27,SW,228,0.0,1.0,81,0.00,,,0.00,0.0,WUHU216DAVISVP2,2013-01-31 04:59:00,
2013-01-30 21:00:00,46.2,40.7,30.27,SW,228,0.0,1.0,81,0.00,,,0.00,0.0,WUHU216DAVISVP2,2013-01-31 05:00:00,
2013-01-30 21:01:00,46.2,41.0,30.27,SW,228,0.0,1.0,82,0.00,,,0.00,0.0,WUHU216DAVISVP2,2013-01-31 05:01:00,
2013-01-30 21:06:00,46.0,40.8,30.27,SW,228,0.0,1.0,82,0.00,,,0.00,0.0,WUHU216DAVISVP2,2013-01-31 05:06:00,
2013-01-30 21:11:00,45.8,40.9,30.27,SW,228,0.0,1.0,83,0.00,,,0.00,0.0,WUHU216DAVISVP2,2013-01-31 05:11:00,
2013-01-30 21:16:00,45.5,40.3,30.27,SW,228,0.0,1.0,82,0.00,,,0.00,0.0,WUHU216DAVISVP2,2013-01-31 05:16:00,
2013-01-30 21:21:00,45.6,40.7,30.27,SW,228,0.0,0.0,83,0.00,,,0.00,0.0,WUHU216DAVISVP2,2013-01-31 05:21:00,
2013-01-30 21:26:00,45.9,41.0,30.27,SW,228,0.0,0.0,83,0.00,,,0.00,0.0,WUHU216DAVISVP2,2013-01-31 05:26:00,
2013-01-30 21:32:00,46.0,41.1,30.27,SW,228,0.0,0.0,83,0.00,,,0.00,0.0,WUHU216DAVISVP2,2013-01-31 05:32:00,
2013-01-30 21:37:00,45.9,40.7,30.27,SW,228,0.0,0.0,82,0.00,,,0.00,0.0,WUHU216DAVISVP2,2013-01-31 05:37:00,
2013-01-30 21:42:00,45.3,40.1,30.27,SW,228,0.0,0.0,82,0.00,,,0.00,0.0,WUHU216DAVISVP2,2013-01-31 05:42:00,
2013-01-30 21:47:00,44.9,40.4,30.27,SW,228,0.0,0.0,84,0.00,,,0.00,0.0,WUHU216DAVISVP2,2013-01-31 05:47:00,
2013-01-30 21:52:00,44.7,40.5,30.28,SW,228,0.0,0.0,85,0.00,,,0.00,0.0,WUHU216DAVISVP2,2013-01-31 05:52:00,
2013-01-30 21:57:00,44.8,40.6,30.28,SW,228,0.0,1.0,85,0.00,,,0.00,0.0,WUHU216DAVISVP2,2013-01-31 05:57:00,
2013-01-30 22:02:00,45.0,40.5,30.28,SW,228,0.0,1.0,84,0.00,,,0.00,0.0,WUHU216DAVISVP2,2013-01-31 06:02:00,
2013-01-30 22:07:00,45.1,40.5,30.27,SW,228,0.0,1.0,84,0.00,,,0.00,0.0,WUHU216DAVISVP2,2013-01-31 06:07:00,
2013-01-30 22:12:00,45.0,40.1,30.28,SW,228,0.0,1.0,83,0.00,,,0.00,0.0,WUHU216DAVISVP2,2013-01-31 06:12:00,
2013-01-30 22:17:00,44.6,40.1,30.28,SW,228,0.0,1.0,84,0.00,,,0.00,0.0,WUHU216DAVISVP2,2013-01-31 06:17:00,
2013-01-30 22:22:00,44.3,39.8,30.28,SW,228,0.0,0.0,84,0.00,,,0.00,0.0,WUHU216DAVISVP2,2013-01-31 06:22:00,
2013-01-30 22:27:00,44.5,40.3,30.27,SW,228,0.0,1.0,85,0.00,,,0.00,0.0,WUHU216DAVISVP2,2013-01-31 06:27:00,
2013-01-30 22:32:00,44.4,39.9,30.27,SW,228,0.0,1.0,84,0.00,,,0.00,0.0,WUHU216DAVISVP2,2013-01-31 06:32:00,
2013-01-30 22:37:00,44.0,39.5,30.27,SW,228,0.0,1.0,84,0.00,,,0.00,0.0,WUHU216DAVISVP2,2013-01-31 06:37:00,
2013-01-30 22:42:00,43.7,39.5,30.28,SW,228,0.0,1.0,85,0.00,,,0.00,0.0,WUHU216DAVISVP2,2013-01-31 06:42:00,
2013-01-30 22:47:00,43.3,39.4,30.28,SW,228,0.0,0.0,86,0.00,,,0.00,0.0,WUHU216DAVISVP2,2013-01-31 06:47:00,
2013-01-30 22:52:00,42.9,39.0,30.28,SW,228,0.0,0.0,86,0.00,,,0.00,0.0,WUHU216DAVISVP2,2013-01-31 06:52:00,
2013-01-30 22:57:00,42.7,39.1,30.28,SW,228,0.0,0.0,87,0.00,,,0.00,0.0,WUHU216DAVISVP2,2013-01-31 06:57:00,
2013-01-30 23:02:00,42.9,39.6,30.28,SW,228,0.0,1.0,88,0.00,,,0.00,0.0,WUHU216DAVISVP2,2013-01-31 07:02:00,
2013-01-30 23:07:00,43.1,39.5,30.28,SW,228,0.0,1.0,87,0.00,,,0.00,0.0,WUHU216DAVISVP2,2013-01-31 07:07:00,
2013-01-30 23:12:00,43.4,39.8,30.28,SW,228,0.0,1.0,87,0.00,,,0.00,0.0,WUHU216DAVISVP2,2013-01-31 07:12:00,
2013-01-30 23:17:00,43.6,40.0,30.28,SW,228,0.0,1.0,87,0.00,,,0.00,0.0,WUHU216DAVISVP2,2013-01-31 07:17:00,
2013-01-30 23:22:00,43.6,40.0,30.28,SW,228,0.0,1.0,87,0.00,,,0.00,0.0,WUHU216DAVISVP2,2013-01-31 07:22:00,
2013-01-30 23:27:00,43.5,39.6,30.28,SW,228,0.0,1.0,86,0.00,,,0.00,0.0,WUHU216DAVISVP2,2013-01-31 07:27:00,
2013-01-30 23:32:00,43.2,39.3,30.28,SW,228,0.0,0.0,86,0.00,,,0.00,0.0,WUHU216DAVISVP2,2013-01-31 07:32:00,
2013-01-30 23:37:00,43.3,40.0,30.28,SW,228,0.0,1.0,88,0.00,,,0.00,0.0,WUHU216DAVISVP2,2013-01-31 07:37:00,
2013-01-30 23:42:00,43.6,40.2,30.28,SW,228,0.0,1.0,88,0.00,,,0.00,0.0,WUHU216DAVISVP2,2013-01-31 07:42:00,
2013-01-30 23:47:00,43.8,40.4,30.28,SW,228,0.0,1.0,88,0.00,,,0.00,0.0,WUHU216DAVISVP2,2013-01-31 07:47:00,
2013-01-30 23:52:00,43.8,40.4,30.28,SW,228,0.0,1.0,88,0.00,,,0.00,0.0,WUHU216DAVISVP2,2013-01-31 07:52:00,
2013-01-30 23:57:00,43.7,40.1,30.28,SW,228,0.0,1.0,87,0.00,,,0.00,0.0,WUHU216DAVISVP2,2013-01-31 07:57:00,